This is the latest recevied weather packets stored in our database for station/object WC4PEM-1. If no packets are shown the sender has not sent any weather packets the latest 10 day(s).
| Time | Temp. | Humidity | Pressure | Rain* | Wind** | Luminosity | Snow |
|---|---|---|---|---|---|---|---|
| 1777832909 | 24.44° C | 66% | 1016.2 hPa | 0 mm | - | 1014 W/m² | - |
| 1777832815 | 24.44° C | 65% | 1016.3 hPa | 0 mm | - | 1023 W/m² | - |
| 1777832609 | 24.44° C | 65% | 1016.3 hPa | 0 mm | - | 1023 W/m² | - |
| 1777832374 | 23.89° C | 66% | 1016.4 hPa | 0 mm | - | 1062 W/m² | - |
| 1777832309 | 23.89° C | 66% | 1016.4 hPa | 0 mm | - | 1062 W/m² | - |
| 1777832009 | 23.89° C | 66% | 1016.4 hPa | 0 mm | - | 684 W/m² | - |
| 1777831814 | 23.89° C | 67% | 1016.6 hPa | 0 mm | - | 512 W/m² | - |
| 1777831709 | 23.89° C | 67% | 1016.6 hPa | 0 mm | - | 512 W/m² | - |
| 1777831590 | 23.33° C | 68% | 1016.7 hPa | 0 mm | - | 548 W/m² | - |
| 1777831474 | 23.33° C | 68% | 1016.7 hPa | 0 mm | - | 548 W/m² | - |
| 1777831409 | 23.33° C | 68% | 1016.7 hPa | 0 mm | - | 548 W/m² | - |
| 1777831109 | 23.89° C | 67% | 1016.7 hPa | 0 mm | - | 547 W/m² | - |
| 1777830809 | 23.89° C | 67% | 1016.8 hPa | 0 mm | - | 381 W/m² | - |
| 1777830708 | 23.89° C | 67% | 1016.7 hPa | 0 mm | - | 450 W/m² | - |
| 1777830509 | 23.89° C | 67% | 1016.7 hPa | 0 mm | - | 450 W/m² | - |
| 1777830209 | 23.89° C | 67% | 1016.8 hPa | 0 mm | - | 900 W/m² | - |
| 1777829909 | 23.33° C | 66% | 1016.8 hPa | 0 mm | - | 482 W/m² | - |
| 1777829609 | 23.89° C | 67% | 1016.8 hPa | 0 mm | - | 752 W/m² | - |
| 1777829413 | 23.33° C | 69% | 1016.9 hPa | 0 mm | - | 633 W/m² | - |
| 1777829320 | 22.78° C | 70% | 1016.9 hPa | 0 mm | - | 615 W/m² | - |
| 1777829309 | 23.33° C | 69% | 1016.9 hPa | 0 mm | - | 633 W/m² | - |
| 1777829009 | 22.78° C | 70% | 1016.9 hPa | 0 mm | - | 615 W/m² | - |
| 1777828709 | 22.78° C | 69% | 1017 hPa | 0 mm | - | 489 W/m² | - |
| 1777828409 | 22.78° C | 69% | 1016.9 hPa | 0 mm | - | 434 W/m² | - |
| 1777828109 | 22.78° C | 69% | 1017 hPa | 0 mm | - | 417 W/m² | - |
* Rain latest hour (hover to see other rain measurements)
** Current wind speed in m/s (hover to see current wind gust speed)